Погода в Мануйлово

Россия / Новгородская область     58°00′52″N   31°43′35″E
темп.,
°C
ветер,
м/с
пор.,
м/с
влажн.,
%
обл.,
%
осадки,
мм/ч
давл.,
гПа
погр.,
м
2 августа, пн
пн200:00+17юз2274100 0.0 100723
03:00+15ю2282100 0.0 100717
06:00+16ююв2483100 0.0 100689
09:00+18вюв3775100 0.0 1004235
12:00+18юв3681100 0.2 1003320
15:00+20вюв41292100 2.9 998597
18:00+21ю6148972 7.8 993853
21:00+19ю5129628 10.6 991604
3 августа, вт
вт300:00+15зюз71495100 1.0 9951105
03:00+15зюз6148736 1.1 10001083
06:00+15зюз51085100 0.0 1002769
09:00+18зюз59667 0.1 10041184
12:00+19юз586172 0.1 10051573
15:00+22зюз694724 0.3 10052068
18:00+20з58615 0.2 10061263
21:00+15зюз310785 0.5 1008338
4 августа, ср
ср400:00+12з22935 0.0 101023
03:00+10зюз22934 0.0 101220
06:00+10юз22905 0.0 101454
09:00+17зюз23605 0.0 1015543
12:00+20з34404 0.0 10151993
15:00+22зсз343430 0.0 10152535
18:00+21сз233934 0.0 10151855
21:00+15в126039 0.0 101615
5 августа, чт
чт500:00+14ююв116074 0.0 101711
03:00+14ююв115980 0.0 101710
06:00+14юв116654 0.0 101713
09:00+18юв1256100 0.0 1018267
12:00+22вюв223554 0.0 10172177
15:00+23юв433563 0.0 10172167
18:00+21юв33454 0.0 1017801
21:00+15юв11723 0.0 101711
6 августа, пт
пт600:00+12юв24936 0.0 101865
03:00+11юв23971 0.0 101845
06:00+11в37945 0.0 1018156
09:00+18вюв376535 0.0 1018597
12:00+22вюв5843100 0.0 10161670
15:00+23вюв5838100 0.0 10151918
18:00+21вюв51148100 0.0 10131206
21:00+19вюв61257100 0.0 10131077